Weather History for Manistique, MI

Change the Weather History Date:

Tuesday, July 31, 2012

  Actual Average Record
Temperature  
Mean Temperature 64 °F -  
Max Temperature 75 °F 74 °F 89 °F (1955)
Min Temperature 53 °F 55 °F 39 °F (1962)
Degree Days  
Heating Degree Days 1    
Growing Degree Days 14 (Base 50)    
Moisture  
Dew Point 59 °F    
Average Humidity 77    
Maximum Humidity 94    
Minimum Humidity 38    
Precipitation  
Precipitation 0.00 in - - ()
Sea Level Pressure  
Sea Level Pressure 29.91 in    
Wind  
Wind Speed 7 mph (NW)    
Max Wind Speed 16 mph    
Max Gust Speed 23 mph    
Visibility 10 miles    
Events      
Averages and records for this station are not official NWS values.
T = Trace of Precipitation, MM = Missing Value Source: NWS Daily Summary

Daily Weather History Graph

Daily Weather History Graph

Search for Another Location

Airport:

Trip Planner

Search our weather history database for the weather conditions in past years. The results will help you decide how hot, cold, wet, or windy it might be!

Date:

Astronomy

Jul. 31, 2012 Rise Set
Actual Time 6:26 AM EDT 9:14 PM EDT
Civil Twilight 5:51 AM EDT 9:49 PM EDT
Nautical Twilight 5:07 AM EDT 10:32 PM EDT
Astronomical Twilight 4:16 AM EDT 11:24 PM EDT
Moon 8:02 PM EDT (7/31) 4:45 AM EDT (7/31)
Length of Visible Light 15h 57m
Length of Day
14h 48m
Waxing Gibbous, 97% of the Moon is Illuminated
Jul 31
Waxing Gibbous
Aug 1
Full
Aug 9
Last Quarter
Aug 17
New
Aug 24
First Quarter

Hourly Weather History & Observations

Time (EDT) Temp. Dew Point Humidity Pressure Visibility Wind Dir Wind Speed Gust Speed Precip Events Conditions
12:35 AM 66.2 °F 62.6 °F 88% 29.84 in 7.0 mi Calm Calm - N/A   Clear
12:55 AM 64.4 °F 62.6 °F 94% 29.84 in 10.0 mi WNW 3.5 mph - N/A   Clear
1:14 AM 64.4 °F 62.6 °F 94% 29.85 in 10.0 mi NW 3.5 mph - N/A   Clear
1:35 AM 64.4 °F 62.6 °F 94% 29.85 in 10.0 mi West 3.5 mph - N/A   Scattered Clouds
1:54 AM 64.4 °F 62.6 °F 94% 29.86 in 10.0 mi West 3.5 mph - N/A   Scattered Clouds
2:15 AM 64.4 °F 62.6 °F 94% 29.85 in 10.0 mi West 3.5 mph - N/A   Scattered Clouds
2:35 AM 64.4 °F 60.8 °F 88% 29.85 in 10.0 mi WNW 5.8 mph - N/A   Clear
2:54 AM 64.4 °F 62.6 °F 94% 29.85 in 10.0 mi WNW 5.8 mph - N/A   Scattered Clouds
3:15 AM 64.4 °F 62.6 °F 94% 29.85 in 10.0 mi WNW 4.6 mph - N/A   Mostly Cloudy
3:35 AM 64.4 °F 62.6 °F 94% 29.85 in 10.0 mi WNW 4.6 mph - N/A   Light Drizzle
3:54 AM 64.4 °F 62.6 °F 94% 29.85 in 10.0 mi WNW 6.9 mph - N/A   Overcast
4:15 AM 66.2 °F 62.6 °F 88% 29.85 in 10.0 mi WNW 8.1 mph - N/A   Overcast
4:35 AM 66.2 °F 62.6 °F 88% 29.85 in 10.0 mi WNW 8.1 mph - N/A   Overcast
4:55 AM 66.2 °F 62.6 °F 88% 29.85 in 10.0 mi WNW 8.1 mph - N/A   Overcast
5:15 AM 66.2 °F 62.6 °F 88% 29.85 in 10.0 mi WNW 8.1 mph - N/A   Overcast
5:34 AM 66.2 °F 62.6 °F 88% 29.86 in 10.0 mi WNW 6.9 mph - N/A   Overcast
5:55 AM 66.2 °F 62.6 °F 88% 29.86 in 10.0 mi WNW 6.9 mph - N/A   Overcast
6:15 AM 64.4 °F 62.6 °F 94% 29.86 in 10.0 mi WNW 6.9 mph - N/A   Mostly Cloudy
6:34 AM 64.4 °F 62.6 °F 94% 29.87 in 10.0 mi WNW 6.9 mph - N/A   Overcast
6:55 AM 64.4 °F 62.6 °F 94% 29.87 in 10.0 mi NW 8.1 mph - N/A   Mostly Cloudy
7:15 AM 64.4 °F 62.6 °F 94% 29.88 in 10.0 mi NNW 6.9 mph - N/A   Mostly Cloudy
7:34 AM 64.4 °F 62.6 °F 94% 29.87 in 10.0 mi NNW 8.1 mph - N/A   Overcast
7:55 AM 66.2 °F 62.6 °F 88% 29.88 in 10.0 mi NNW 10.4 mph 16.1 mph N/A   Overcast
8:14 AM 66.2 °F 62.6 °F 88% 29.89 in 10.0 mi NW 6.9 mph - N/A   Overcast
8:35 AM 66.2 °F 62.6 °F 88% 29.90 in 10.0 mi NNW 8.1 mph - N/A   Overcast
8:55 AM 66.2 °F 62.6 °F 88% 29.90 in 10.0 mi NNW 10.4 mph - N/A   Overcast
9:14 AM 66.2 °F 62.6 °F 88% 29.90 in 10.0 mi NNW 8.1 mph - N/A   Mostly Cloudy
9:35 AM 68.0 °F 62.6 °F 83% 29.91 in 10.0 mi NNW 8.1 mph - N/A   Mostly Cloudy
9:55 AM 68.0 °F 62.6 °F 83% 29.91 in 10.0 mi NNW 11.5 mph 16.1 mph N/A   Overcast
10:14 AM 69.8 °F 62.6 °F 78% 29.91 in 10.0 mi NNW 10.4 mph 17.3 mph N/A   Overcast
10:35 AM 69.8 °F 62.6 °F 78% 29.92 in 10.0 mi NNW 6.9 mph 16.1 mph N/A   Overcast
10:54 AM 68.0 °F 62.6 °F 83% 29.93 in 10.0 mi NNW 8.1 mph 16.1 mph N/A   Overcast
11:15 AM 69.8 °F 62.6 °F 78% 29.93 in 10.0 mi NNW 9.2 mph 16.1 mph N/A   Overcast
11:35 AM 71.6 °F 62.6 °F 73% 29.93 in 10.0 mi NNW 12.7 mph 16.1 mph N/A   Overcast
11:54 AM 71.6 °F 62.6 °F 73% 29.93 in 10.0 mi North 10.4 mph - N/A   Overcast
12:15 PM 71.6 °F 62.6 °F 73% 29.94 in 10.0 mi NNW 10.4 mph 16.1 mph N/A   Overcast
12:34 PM 71.6 °F 62.6 °F 73% 29.94 in 10.0 mi NW 15.0 mph 20.7 mph N/A   Overcast
12:55 PM 71.6 °F 60.8 °F 69% 29.94 in 10.0 mi NNW 16.1 mph 21.9 mph N/A   Overcast
1:15 PM 71.6 °F 60.8 °F 69% 29.94 in 10.0 mi NNW 11.5 mph 20.7 mph N/A   Overcast
1:34 PM 71.6 °F 60.8 °F 69% 29.94 in 10.0 mi North 12.7 mph - N/A   Overcast
1:55 PM 71.6 °F 62.6 °F 73% 29.95 in 10.0 mi North 11.5 mph 20.7 mph N/A   Overcast
2:14 PM 71.6 °F 60.8 °F 69% 29.96 in 10.0 mi NNW 13.8 mph 19.6 mph N/A   Overcast
2:35 PM 69.8 °F 60.8 °F 73% 29.96 in 10.0 mi NNW 13.8 mph 20.7 mph N/A   Overcast
3:14 PM 71.6 °F 60.8 °F 69% 29.95 in 10.0 mi North 13.8 mph 23.0 mph N/A   Overcast
3:35 PM 75.2 °F 62.6 °F 65% 29.95 in 10.0 mi NNW 12.7 mph 20.7 mph N/A   Mostly Cloudy
3:54 PM 75.2 °F 60.8 °F 61% 29.95 in 10.0 mi NNW 12.7 mph 21.9 mph N/A   Scattered Clouds
4:15 PM 73.4 °F 60.8 °F 65% 29.94 in 10.0 mi North 11.5 mph - N/A   Mostly Cloudy
4:34 PM 75.2 °F 60.8 °F 61% 29.94 in 10.0 mi North 6.9 mph 17.3 mph N/A   Mostly Cloudy
4:55 PM 73.4 °F 59.0 °F 61% 29.94 in 10.0 mi NNW 9.2 mph 17.3 mph N/A   Scattered Clouds
5:15 PM 73.4 °F 60.8 °F 65% 29.94 in 10.0 mi NW 10.4 mph - N/A   Clear
5:34 PM 75.2 °F 59.0 °F 57% 29.94 in 10.0 mi NNW 11.5 mph - N/A   Scattered Clouds
5:55 PM 75.2 °F 57.2 °F 53% 29.94 in 10.0 mi NNW 9.2 mph - N/A   Scattered Clouds
6:14 PM 75.2 °F 57.2 °F 53% 29.93 in 10.0 mi NNW 9.2 mph - N/A   Clear
6:35 PM 73.4 °F 55.4 °F 53% 29.93 in 10.0 mi NW 11.5 mph 16.1 mph N/A   Clear
6:55 PM 73.4 °F 53.6 °F 50% 29.94 in 10.0 mi NNW 12.7 mph - N/A   Clear
7:14 PM 73.4 °F 51.8 °F 47% 29.94 in 10.0 mi NNW 10.4 mph - N/A   Clear
7:35 PM 71.6 °F 44.6 °F 38% 29.95 in 10.0 mi NNW 8.1 mph - N/A   Clear
7:55 PM 71.6 °F 46.4 °F 41% 29.94 in 10.0 mi North 3.5 mph - N/A   Clear
8:14 PM 69.8 °F 48.2 °F 46% 29.94 in 10.0 mi North 3.5 mph - N/A   Clear
8:35 PM 66.2 °F 51.8 °F 60% 29.94 in 10.0 mi North 3.5 mph - N/A   Clear
8:54 PM 64.4 °F 51.8 °F 64% 29.94 in 10.0 mi North 3.5 mph - N/A   Clear
9:15 PM 62.6 °F 51.8 °F 68% 29.95 in 10.0 mi North 5.8 mph - N/A   Clear
9:35 PM 57.2 °F 51.8 °F 82% 29.96 in 10.0 mi North 5.8 mph - N/A   Clear
9:54 PM 57.2 °F 51.8 °F 82% 29.95 in 10.0 mi North 5.8 mph - N/A   Clear
10:15 PM 57.2 °F 51.8 °F 82% 29.95 in 10.0 mi North 4.6 mph - N/A   Clear
10:35 PM 57.2 °F 51.8 °F 82% 29.95 in 10.0 mi Calm Calm - N/A   Clear
11:15 PM 55.4 °F 51.8 °F 88% 29.95 in 10.0 mi West 3.5 mph - N/A   Clear
11:34 PM 53.6 °F 50.0 °F 88% 29.95 in 10.0 mi West 5.8 mph - N/A   Clear
11:55 PM 53.6 °F 50.0 °F 88% 29.95 in 10.0 mi West 4.6 mph - N/A   Clear